Regional Weather Roundup
Issued by NWS Mobile, AL

Home | Current Version | Previous Version | Text Only | Print | Product List | Glossary On
Versions: 1 2 3 4 5 6 7 8 9 10 11 12 13 14 15 16 17 18 19 20 21 22 23 24 25 26 27 28 29 30 31 32 33 34 35 36 37 38 39 40 41 42 43 44 45 46 47 48 49 50
000
ASUS44 KMOB 301110
RWRMOB
REGIONAL WEATHER ROUNDUP
NATIONAL WEATHER SERVICE MOBILE AL
600 AM CDT SAT AUG 30 2014

NOTE: "FAIR" INDICATES FEW OR NO CLOUDS BELOW 12,000 FEET WITH NO
      SIGNIFICANT WEATHER AND/OR OBSTRUCTIONS TO VISIBILITY.

  * THESE STATIONS ARE PART OF THE UNIVERSITY OF SOUTH ALABAMA
    MESONET AND ARE NOT UNDER NWS OR FAA QUALITY CONTROL.

ALZ061>064-301200-
COASTAL ALABAMA

CITY           SKY/WX    TMP DP  RH WIND       PRES   REMARKS
MOBILE REG APT CLOUDY    77  76  96 SE5       30.06R
BROOKLEY FIELD MOCLDY    82  77  84 S7        30.05S
USA CAMPUS*      N/A     77  75  94 CALM      30.04S
DOG RIVER*       N/A     79  77  94 S2        30.05R


CITY           SKY/WX    TMP DP  RH WIND       PRES   REMARKS
MOUNT VERNON*    N/A     72  70  94 CALM      30.05S
SARALAND*      NOT AVBL
BAY MINETTE*   NOT AVBL
LOXLEY*          N/A     72  72 100 CALM      30.06S
ROBERTSDALE*     N/A    N/A N/A N/A CALM      30.06R
FAIRHOPE*        N/A     73  73 100 CALM      30.04S
ELBERTA*         N/A     75  63  64 CALM      30.05R
FOLEY*         NOT AVBL
GRAND BAY*       N/A     75  75 100 CALM      30.03R
DAUPHIN ISLND* NOT AVBL
BON SCOUR NWR* NOT AVBL
GULF SHORES    MOCLDY    80  77  89 CALM      30.05R

$$

ALZ051>060-301200-
INTERIOR SOUTHWEST AND SOUTH CENTRAL ALABAMA

CITY           SKY/WX    TMP DP  RH WIND       PRES   REMARKS
GREENVILLE     MOCLDY    75  73  94 CALM      30.08R
EVERGREEN      MOCLDY    76  73  91 CALM      30.08R
CASTLEBERRY*   NOT AVBL
ATMORE*          N/A     73  73 100 CALM      30.07S
DIXIE*         NOT AVBL
ANDALUSIA/OPP  CLOUDY    78  73  84 SE5       30.09R
ANDALUSIA*     NOT AVBL
FLORALA APT    PTCLDY    75  73  93 CALM      30.10R
FLORALA*         N/A     73  72  94 CALM      30.06S

$$

FLZ001>006-301200-
WESTERN FLORIDA PANHANDLE

CITY           SKY/WX    TMP DP  RH WIND       PRES   REMARKS
PENSACOLA      MOCLDY    77  75  93 S5        30.05R
NAS PENSACOLA  MOCLDY    80  76  87 S6        30.05R
MILTON         MOCLDY    75  72  90 E5        30.07R
WHTNG S FIELD    N/A    N/A N/A N/A MISG      30.07R


CITY           SKY/WX    TMP DP  RH WIND       PRES   REMARKS
WALNUT HILL*   NOT AVBL
JAY*           NOT AVBL
DUKE FIELD     CLOUDY    75  75 100 E3        30.08R
CRESTVIEW      MOCLDY    73  72  96 CALM      30.09R FOG
VALPARAISO     MOCLDY    78  75  91 E5        30.07R
DESTIN         MOCLDY    84  76  76 CALM      30.06R

$$

MSZ076-079-301200-
INTERIOR SOUTHEAST MISSISSIPPI

CITY           SKY/WX    TMP DP  RH WIND       PRES   REMARKS
LEAKESVILLE*     N/A     73  72  94 E3          N/A
AGRICOLA*      NOT AVBL

$$

MARINE OBSERVATIONS

STATION/POSITION TIME  TEMP    WIND        PRES    WAVE
                       AIR SEA DIR/SP/G            HT/PER
                 (UTC) (F)     (DEG/KT/KT) (MB)    (FT/S)
PASCAGOULA       1100   83     160/ 10/ 11 1016.5S
PETIT BOIS ISLND 1100   83     160/ 10/ 12 1017.0R
GRAND BAY        1000   83     180/ 12     1018.0R
KATRINA CUT      1000   83     180/ 12     1017.3S
CEDAR POINT      1000   82     170/ 12     1016.6S
E DAUPHIN ISLAND 1000   83     170/ 11/ 12 1016.9R
MIDDLE BAY LIGHT 1000   83     170/ 12     1016.9R
USCG MOBILE BAY  1100   83 86  170/  6/  9 1016.3R
STATE DOCKS      1100   81 85              1017.1S
MEAHER PARK      1000   78     100/  4     1017.3R
WEEKS BAY        1000   74                   N/A
FORT MORGAN      1100   83     170/ 10/ 11 1016.7R
12 S ORANGE BCH  1100   83 85  170/  8/ 10 1017.3R   2/ 5
PENSACOLA BAY    1100   84 85  170/  7/  9 1017.6S
64 S DAUPHIN ISL 1100   83 84  120/ 10/ 14 1016.8R

$$

SELECTED LOCATIONS ACROSS THE REGION

CITY           SKY/WX    TMP DP  RH WIND       PRES   REMARKS
NEW ORLEANS    LGT RAIN  80  76  87 SE6       29.98F
GULFPORT       MOCLDY    82  76  81 S6        30.01S
PASCAGOULA AP  CLOUDY    76  75  97 CALM      30.03S
PASCAGOULA*      N/A     81  77  89 CALM      30.02S
HATTIESBURG    MOCLDY    75  74  96 CALM      30.04S
LAUREL         MOCLDY    73  72  94 CALM      30.05S
MERIDIAN       CLOUDY    74  72  93 S3        30.05R
JACKSON        CLOUDY    75  73  93 SE3       30.03R
MONTGOMERY     CLOUDY    76  73  91 CALM      30.09R
TROY           MOCLDY    75  72  90 CALM      30.10R
KINSTON*       NOT AVBL
GENEVA*          N/A     70  68  94 SE3       30.11R
ASHFORD*       NOT AVBL
DOTHAN         FOG       73  73 100 CALM      30.14R VSB 1/4
PANAMA CITY    PTCLDY    75  72  90 NE3       30.07R

$$



USA.gov is the U.S. government's official web portal to all federal, state and local government web resources and services.